EWG599 EDLW-EDDN

Flight info

Callsign EWG599
Flight time N/A
Altitude 23000
Route GMH8Q GMH DCT ARPEG DCT AMETU DCT KERAX DCT KOMIB T193 ERTES T194 DODAS DODAS1T
Aircraft A20N/M-SDE2E3FGHIRWXY/LB1

Departure

Time 2026-05-01 15:29
Airport Dortmund Airport (EDLW)

Arrival

Time N/A
Airport Nuremberg Airport (EDDN)
Time Latitude Longitude Altitude Speed Heading
2026-05-01 14:54 51.51640 7.61390 434 ft 0 kts 150°
2026-05-01 15:19 51.51661 7.61368 422 ft 2 kts 154°
2026-05-01 15:19 51.51671 7.61362 420 ft 2 kts 167°
2026-05-01 15:20 51.51690 7.61360 420 ft 0 kts 237°
2026-05-01 15:22 51.51684 7.61342 425 ft 6 kts 240°
2026-05-01 15:22 51.51654 7.61259 423 ft 11 kts 240°
2026-05-01 15:23 51.51596 7.61087 427 ft 16 kts 246°
2026-05-01 15:23 51.51541 7.60913 428 ft 18 kts 239°
2026-05-01 15:23 51.51494 7.60773 422 ft 23 kts 241°
2026-05-01 15:23 51.51397 7.60502 417 ft 11 kts 240°
2026-05-01 15:24 51.51376 7.60441 419 ft 0 kts 242°
2026-05-01 15:26 51.51369 7.60417 417 ft 8 kts 244°
2026-05-01 15:26 51.51377 7.60299 416 ft 13 kts 315°
2026-05-01 15:26 51.51487 7.60255 409 ft 21 kts 33°
2026-05-01 15:27 51.51562 7.60454 411 ft 22 kts 60°
2026-05-01 15:27 51.51617 7.60608 410 ft 0 kts 60°
2026-05-01 15:28 51.51645 7.60690 411 ft 39 kts 62°
2026-05-01 15:28 51.51926 7.61495 416 ft 123 kts 59°
2026-05-01 15:28 51.52459 7.62986 519 ft 177 kts 64°
2026-05-01 15:29 51.53494 7.66165 1239 ft 229 kts 66°
2026-05-01 15:29 51.54253 7.68627 1829 ft 262 kts 67°
2026-05-01 15:29 51.55380 7.72353 2796 ft 296 kts 67°
2026-05-01 15:30 51.56229 7.76468 4336 ft 290 kts 94°
2026-05-01 15:31 51.50493 7.81404 9029 ft 283 kts 187°
2026-05-01 15:31 51.46462 7.80010 10744 ft 307 kts 199°
2026-05-01 15:32 51.42516 7.77103 12712 ft 317 kts 202°
2026-05-01 15:32 51.39039 7.75996 14386 ft 315 kts 172°
2026-05-01 15:33 51.32701 7.78885 17366 ft 316 kts 161°
2026-05-01 15:34 51.26555 7.82192 20310 ft 306 kts 161°